THORAD AGENA D DEB

Satellite information

Favourite Embed

Satellite Type and Status

DEBRISIN ORBIT

Key statistics

Satellite THORAD AGENA D DEB at a glance.

Uptime

20179

Days in orbit

Revolutions

≈ 13.8

Per day

Orbit

SSO

Sun Synchronous Orbit

Inclination

99.7

Latest

Satellite identification and parameters

Extended collection of information and parameters for THORAD AGENA D DEB.

Object identification

Identified? True

Debris? True

Object name: THORAD AGENA D DEB

International designator: 1970-025GG

Object number (NORAD): 4946

Object ID (CCSDS): 4946

Country: UNITED STATES OF AMERICA (US)

Current information (Y/N): Y

RCS size: SMALL

Orbital parameters

Period: 104.132 minutes

Inclination: 99.6583 deg

SMA: 7331.893 km

Apoapsis: 967.059 km

Periapsis: 940.458 km

RAAN: 298.3658 deg

Eccentricy: 0.0018141

Argument of periapsis: 155.4841 deg

Mean anomaly: 268.5323 deg

Mean motion: 13.82861044 rev/day

Mean motion (dot): 0.00000916 rev/day2

B* drag term: 0.00088201 1/REarth

Two-line elements (TLE)

Creation date: July 6, 2025, 6:05 p.m.

Reference frame: TEME

Reference center: EARTH

Epoch: July 6, 2025, 7:18 a.m. UTC

TLE line 0: 0 THORAD AGENA D DEB

TLE line 1: 1 04946U 70025GG 25187.30484396 .00000916 00000-0 88201-3 0 9995

TLE line 2: 2 04946 99.6583 298.3658 0018141 155.4841 268.5323 13.82861044755181

Live tracking on map

Real-time ground track for satellite THORAD AGENA D DEB.

In-orbit conjunctions

A list of the most updated potential collisions computed for object THORAD AGENA D DEB.

Target Orbit TCA Probability of collision Miss distance Type
SL-8 R/B LEO 2024-09-11 20:11:12 0.000117664 378.0 (m) ROCKET BODY
COSMOS 991 LEO 2024-07-04 06:06:26 0.0001472936 434.0 (m) PAYLOAD

Associated space launch

Meteorological research and development satellite

THORAD AGENA D DEB was lifted into orbit during the mission ‘Thorad SLV-2G Agena D | Nimbus 4’, on board a Thorad SLV-2G Agena D space rocket.

The launch took place on April 8, 1970, 8:17 a.m. from Space Launch Complex 2E.

For more information about the launch, click the button.

Launch to space Thorad SLV-2G Agena D | Nimbus 4
Thorad SLV-2G Agena D | Nimbus 4

Agency: N/A

Status: Launch Successful

Launch date: April 8, 1970, 8:17 a.m. UTC

Rocket: Thorad SLV-2G Agena D

Launch pad: Space Launch Complex 2E

Location: Vandenberg SFB, CA, USA

...

Latest news about this satellite

There are no fresh news available about this satellite. Check back as we update our databases every day.


Newsletter sign-up

Weekly statistics, charts and insights to help you stay on top of the space industry.